EW0407 Weather Reports


time (UTC)temp
F
wind
direction
speed
knots
gust
knots
rain 1hr
in
rain 24hr
in
rain mn
in
humidity
%
barometer
mb
20260906082349 89 70 0.9 6.1 0.00 0.00 0.00 33 1022.4
20260906081352 89 59 0.9 6.1 0.00 0.00 0.00 33 1022.4
20260906080313 89 352 2.6 5.2 0.00 0.00 0.00 34 1022.8
20260906075336 88 2 3.5 4.3 0.00 0.00 0.00 33 1022.7
20260906074401 88 0 4.3 8.7 0.00 0.00 0.00 34 1022.7
20260906073312 90 0.0 2.6 0.00 0.00 0.00 33 1022.4
20260906072128 87 7 0.9 5.2 0.00 0.00 0.00 36 1022.3
20260906071152 88 288 1.7 1.7 0.00 0.00 0.00 34 1022.3
20260906070113 88 198 0.9 1.7 0.00 0.00 0.00 34 1022.3
20260906064929 88 166 1.7 2.6 0.00 0.00 0.00 33 1021.9
20260906063952 85 223 0.9 1.7 0.00 0.00 0.00 35 1022.3
20260906062912 86 238 0.9 0.9 0.00 0.00 0.00 35 1021.7
20260906061729 86 253 0.9 2.6 0.00 0.00 0.00 36 1021.6
20260906060752 84 286 1.7 2.6 0.00 0.00 0.00 37 1021.8
20260906055713 83 0.0 0.9 0.00 0.00 0.00 38 1021.9
20260906054529 84 243 2.6 2.6 0.00 0.00 0.00 37 1021.6
20260906053552 83 210 3.5 6.1 0.00 0.00 0.00 37 1021.6
20260906052513 82 190 1.7 7.0 0.00 0.00 0.00 38 1021.6
20260906051329 82 291 0.9 1.7 0.00 0.00 0.00 38 1022.0
20260906050353 80 318 0.9 0.9 0.00 0.00 0.00 41 1021.8
20260906045313 79 0.0 0.0 0.00 0.00 0.00 41 1022.0
20260906044149 78 0.0 0.0 0.00 0.00 0.00 43 1021.8
20260906043152 78 0.0 0.0 0.00 0.00 0.00 42 1022.0
20260906042112 76 0.0 0.9 0.00 0.00 0.00 43 1021.8
20260906040929 76 35 0.9 1.7 0.00 0.00 0.00 44 1022.0
20260906035953 76 33 0.9 0.9 0.00 0.00 0.00 44 1021.7
20260906034912 77 2 0.9 1.7 0.00 0.00 0.00 42 1021.5
20260906033749 77 34 0.9 1.7 0.00 0.00 0.00 41 1021.5
20260906032752 77 12 1.7 2.6 0.00 0.00 0.00 41 1021.5
20260906031713 77 26 0.9 0.9 0.00 0.00 0.00 40 1021.7
20260906030529 78 353 2.6 2.6 0.00 0.00 0.00 39 1021.4
20260906025613 78 5 2.6 4.3 0.00 0.00 0.00 39 1021.4
20260906024513 78 20 3.5 4.3 0.00 0.00 0.00 38 1021.0
20260906023328 77 51 0.9 1.7 0.00 0.00 0.00 39 1021.0
20260906022353 77 15 0.9 1.7 0.00 0.00 0.00 39 1021.1
20260906021312 78 337 0.9 1.7 0.00 0.00 0.00 38 1021.1
20260906020129 78 349 2.6 4.3 0.00 0.00 0.00 38 1021.1
20260906015153 78 344 1.7 2.6 0.00 0.00 0.00 39 1021.3
20260906014152 78 4 0.9 2.6 0.00 0.00 0.00 39 1021.1
20260906012928 77 41 2.6 2.6 0.00 0.00 0.00 40 1021.2
20260906011953 78 4 0.9 4.3 0.00 0.00 0.00 40 1021.4
20260906010913 78 347 1.7 4.3 0.00 0.00 0.00 40 1021.5
20260906005729 78 44 2.6 2.6 0.00 0.00 0.00 39 1021.2
20260906004753 78 13 0.9 1.7 0.00 0.00 0.00 39 1021.3
20260906003713 79 15 1.7 5.2 0.00 0.00 0.00 37 1021.3
20260906002529 79 22 3.5 7.0 0.00 0.00 0.00 36 1021.2
20260906001552 79 13 4.3 5.2 0.00 0.00 0.00 36 1021.4
20260906000552 79 7 2.6 4.3 0.00 0.00 0.00 37 1021.3
20260905235329 79 339 3.5 4.3 0.00 0.00 0.00 37 1021.4
20260905234352 78 10 1.7 2.6 0.00 0.00 0.00 38 1021.7
20260905233313 78 14 1.7 5.2 0.00 0.00 0.00 39 1021.7
20260905232128 77 2 3.5 4.3 0.00 0.00 0.00 40 1021.6
20260905231152 76 1 0.0 0.9 0.00 0.00 0.00 43 1021.9
20260905230112 78 0.0 0.9 0.00 0.00 0.00 41 1022.0
20260905224949 78 5 1.7 2.6 0.00 0.00 0.00 40 1021.8
20260905223953 79 357 2.6 4.3 0.00 0.00 0.00 40 1021.9
20260905222913 79 9 2.6 4.3 0.00 0.00 0.00 39 1021.9
20260905221729 79 346 2.6 5.2 0.00 0.00 0.00 39 1022.2
20260905220753 79 355 1.7 5.2 0.00 0.00 0.00 38 1021.8
20260905215713 79 3 3.5 6.1 0.00 0.00 0.00 38 1021.8
20260905214529 78 5 2.6 4.3 0.00 0.00 0.00 39 1021.8
20260905213553 77 10 0.9 2.6 0.00 0.00 0.00 41 1022.1
20260905212512 77 0.0 0.0 0.00 0.00 0.00 41 1022.3
20260905211349 77 0.0 0.0 0.00 0.00 0.00 41 1022.2
20260905210353 77 331 0.0 0.9 0.00 0.00 0.00 41 1022.5
20260905205313 78 0.0 0.9 0.00 0.00 0.00 41 1022.1
20260905204129 78 0.0 0.9 0.00 0.00 0.00 39 1021.9
20260905203153 79 0.0 0.9 0.00 0.00 0.00 38 1021.8
20260905202112 79 314 1.7 1.7 0.00 0.00 0.00 37 1022.1
20260905200949 80 7 3.5 5.2 0.00 0.00 0.00 36 1021.9
20260905195952 80 17 3.5 5.2 0.00 0.00 0.00 36 1021.6
20260905194913 80 6 3.5 6.1 0.00 0.00 0.00 37 1021.9
20260905193749 80 11 0.0 6.1 0.00 0.00 0.00 38 1021.9
20260905192752 78 32 0.9 1.7 0.00 0.00 0.00 41 1021.9
20260905191713 78 0.0 0.0 0.00 0.00 0.00 43 1021.9
20260905190548 79 0.0 0.9 0.00 0.00 0.00 41 1022.0
20260905185553 79 0.0 0.0 0.00 0.00 0.00 41 1022.1
20260905184513 80 322 0.9 1.7 0.00 0.00 0.00 39 1021.9
20260905183329 80 10 0.9 2.6 0.00 0.00 0.00 39 1021.8
20260905182413 80 339 0.9 2.6 0.00 0.00 0.00 39 1021.7
20260905181353 80 0.0 0.9 0.00 0.00 0.00 40 1021.7
20260905180129 80 27 0.9 1.7 0.00 0.00 0.00 39 1021.6
20260905175153 81 84 1.7 2.6 0.00 0.00 0.00 38 1021.4
20260905174132 81 356 1.7 5.2 0.00 0.00 0.00 38 1021.6
20260905172928 81 0.0 0.9 0.00 0.00 0.00 39 1021.4
20260905172013 82 19 1.7 2.6 0.00 0.00 0.00 38 1021.2
20260905170913 82 346 2.6 5.2 0.00 0.00 0.00 38 1021.3
20260905165729 82 7 2.6 2.6 0.00 0.00 0.00 38 1020.9
20260905164753 83 22 0.9 2.6 0.00 0.00 0.00 38 1021.1
20260905163713 84 29 0.9 1.7 0.00 0.00 0.00 38 1020.9
20260905162529 85 314 2.6 6.1 0.00 0.00 0.00 38 1020.7
20260905161553 85 61 0.9 1.7 0.00 0.00 0.00 38 1020.8
20260905160513 85 40 1.7 4.3 0.00 0.00 0.00 37 1021.2
20260905155329 86 21 3.5 6.1 0.00 0.00 0.00 36 1020.9
20260905154413 86 348 2.6 4.3 0.00 0.00 0.00 37 1021.0
20260905153313 86 22 4.3 7.8 0.00 0.00 0.00 37 1021.1
20260905152129 86 355 4.3 7.8 0.00 0.00 0.00 37 1021.0
20260905151153 87 15 2.6 7.0 0.00 0.00 0.00 36 1020.9
20260905150113 87 334 7.0 7.8 0.00 0.00 0.00 37 1021.1
20260905144929 87 9 2.6 6.1 0.00 0.00 0.00 37 1020.8
20260905144033 88 334 5.2 7.0 0.00 0.00 0.00 36 1020.9
20260905142913 88 14 3.5 4.3 0.00 0.00 0.00 35 1020.7
20260905141729 88 14 3.5 4.3 0.00 0.00 0.00 35 1020.9
20260905140753 88 14 3.5 4.3 0.00 0.00 0.00 35 1021.2
20260905135713 87 56 3.5 5.2 0.00 0.00 0.00 36 1020.9
20260905134529 87 38 5.2 9.6 0.00 0.00 0.00 35 1021.1
20260905133613 88 358 7.0 7.8 0.00 0.00 0.00 36 1020.9
20260905132533 87 51 1.7 7.0 0.00 0.00 0.00 36 1021.1
20260905131329 87 66 0.9 7.8 0.00 0.00 0.00 36 1021.2
20260905130353 86 305 4.3 5.2 0.00 0.00 0.00 36 1021.1
20260905125313 87 337 4.3 5.2 0.00 0.00 0.00 36 1021.2
20260905124337 88 336 1.7 7.0 0.00 0.00 0.00 36 1021.3
20260905123401 87 341 4.3 7.0 0.00 0.00 0.00 37 1021.1
20260905122314 87 338 1.7 2.6 0.00 0.00 0.00 36 1021.3
20260905121130 86 302 3.5 8.7 0.00 0.00 0.00 37 1021.5
20260905120154 86 333 6.1 7.8 0.00 0.00 0.00 36 1021.7
20260905115114 86 333 6.1 7.8 0.00 0.00 0.00 36 1021.6
20260905113931 87 320 2.6 8.7 0.00 0.00 0.00 36 1021.5
20260905112953 86 6 7.0 8.7 0.00 0.00 0.00 36 1021.8
20260905111914 87 9 5.2 7.8 0.00 0.00 0.00 36 1021.7
20260905110730 86 19 7.0 11.3 0.00 0.00 0.00 37 1022.1
20260905105754 86 341 5.2 9.6 0.00 0.00 0.00 36 1021.6
20260905104714 86 359 4.3 9.6 0.00 0.00 0.00 36 1021.6
20260905103530 86 56 4.3 9.6 0.00 0.00 0.00 36 1021.7
20260905102554 86 350 6.1 7.8 0.00 0.00 0.00 36 1021.6
20260905101534 86 20 4.3 5.2 0.00 0.00 0.00 38 1022.2
20260905100329 85 90 3.5 5.2 0.00 0.00 0.00 40 1021.7
20260905095414 85 334 7.8 9.6 0.00 0.00 0.00 39 1021.8
20260905094334 85 274 4.3 6.1 0.00 0.00 0.00 39 1021.7
20260905093130 85 327 12.2 14.8 0.00 0.00 0.00 38 1021.6
20260905092154 85 318 11.3 15.6 0.00 0.00 0.00 38 1022.0
20260905091135 84 327 11.3 18.2 0.00 0.00 0.00 39 1021.5
20260905085930 84 349 7.0 13.0 0.00 0.00 0.00 39 1021.5
20260905084954 84 346 7.8 9.6 0.00 0.00 0.00 39 1021.5
20260905083914 84 79 2.6 5.2 0.00 0.00 0.00 39 1021.5